Year,Month,Day,Hour,Minute,Value (Times are PST for temperature in C)
2008,05,18,00,03,10.20
2008,05,18,00,04,10.20
2008,05,18,00,05,10.20
2008,05,18,00,06,10.20
2008,05,18,00,07,10.20
2008,05,18,00,08,10.20
2008,05,18,00,09,10.20
2008,05,18,00,10,10.20
2008,05,18,00,11,10.20
2008,05,18,00,13,10.00
2008,05,18,00,14,10.00
2008,05,18,00,15,10.00
2008,05,18,00,16,10.00
2008,05,18,00,17,10.00
2008,05,18,00,18,10.00
2008,05,18,00,19,10.00
2008,05,18,00,20,10.00
2008,05,18,00,22,10.00
2008,05,18,00,23,9.90
2008,05,18,00,24,9.90
2008,05,18,00,25,9.90
2008,05,18,00,26,9.90
2008,05,18,00,27,9.90
2008,05,18,00,28,9.90
2008,05,18,00,29,9.90
2008,05,18,00,30,9.90
2008,05,18,00,31,9.90
2008,05,18,00,32,9.90
2008,05,18,00,33,9.70
2008,05,18,00,34,9.70
2008,05,18,00,35,9.70
2008,05,18,00,36,9.70
2008,05,18,00,37,9.70
2008,05,18,00,39,9.70
2008,05,18,00,40,9.70
2008,05,18,00,41,9.70
2008,05,18,00,42,9.70
2008,05,18,00,43,9.60
2008,05,18,00,44,9.60
2008,05,18,00,45,9.60
2008,05,18,00,46,9.60
2008,05,18,00,47,9.60
2008,05,18,00,48,9.60
2008,05,18,00,49,9.60
2008,05,18,00,50,9.60
2008,05,18,00,51,9.60
2008,05,18,00,52,9.60
2008,05,18,00,53,9.30
2008,05,18,00,54,9.30
2008,05,18,00,55,9.30
2008,05,18,00,56,9.30
2008,05,18,00,57,9.30
2008,05,18,00,58,9.30
2008,05,18,00,59,9.30
2008,05,18,01,00,9.30
2008,05,18,01,01,9.30
2008,05,18,01,02,9.30
2008,05,18,01,03,9.00
2008,05,18,01,04,9.00
2008,05,18,01,05,9.00
2008,05,18,01,06,9.00
2008,05,18,01,07,9.00
2008,05,18,01,08,9.00
2008,05,18,01,09,9.00
2008,05,18,01,10,9.00
2008,05,18,01,11,9.00
2008,05,18,01,12,9.00
2008,05,18,01,13,9.00
2008,05,18,01,14,9.00
2008,05,18,01,15,9.00
2008,05,18,01,16,9.00
2008,05,18,01,17,8.80
2008,05,18,01,18,8.80
2008,05,18,01,20,8.80
2008,05,18,01,21,8.80
2008,05,18,01,22,8.80
2008,05,18,01,23,8.80
2008,05,18,01,24,8.80
2008,05,18,01,25,8.80
2008,05,18,01,26,8.80
2008,05,18,01,27,8.80
2008,05,18,01,28,8.80
2008,05,18,01,29,8.80
2008,05,18,01,30,8.80
2008,05,18,01,31,8.80
2008,05,18,01,32,8.80
2008,05,18,01,33,8.80
2008,05,18,01,34,8.80
2008,05,18,01,35,8.80
2008,05,18,01,36,8.80
2008,05,18,01,37,8.80
2008,05,18,01,38,8.80
2008,05,18,01,39,8.80
2008,05,18,01,40,8.80
2008,05,18,01,41,8.80
2008,05,18,01,42,8.80
2008,05,18,01,43,8.80
2008,05,18,01,44,8.80
2008,05,18,01,45,8.80
2008,05,18,01,46,8.80
2008,05,18,01,47,8.80
2008,05,18,01,48,8.80
2008,05,18,01,49,8.80
2008,05,18,01,50,8.80
2008,05,18,01,51,8.80
2008,05,18,01,52,8.80
2008,05,18,01,53,8.80
2008,05,18,01,54,8.80
2008,05,18,01,55,8.80
2008,05,18,01,56,8.80
2008,05,18,01,57,8.80
2008,05,18,01,58,8.80
2008,05,18,01,59,8.80
2008,05,18,02,00,8.80
2008,05,18,02,01,8.80
2008,05,18,02,02,8.80
2008,05,18,02,03,8.80
2008,05,18,02,04,8.80
2008,05,18,02,05,8.80
2008,05,18,02,06,8.80
2008,05,18,02,07,8.80
2008,05,18,02,08,8.80
2008,05,18,02,09,8.80
2008,05,18,02,10,8.80
2008,05,18,02,11,8.80
2008,05,18,02,12,8.80
2008,05,18,02,13,8.80
2008,05,18,02,14,8.80
2008,05,18,02,15,8.80
2008,05,18,02,16,8.80
2008,05,18,02,17,8.80
2008,05,18,02,18,8.80
2008,05,18,02,19,8.80
2008,05,18,02,20,8.80
2008,05,18,02,21,8.80
2008,05,18,02,22,8.80
2008,05,18,02,23,8.80
2008,05,18,02,24,8.80
2008,05,18,02,25,9.10
2008,05,18,02,26,9.10
2008,05,18,02,27,9.10
2008,05,18,02,28,9.10
2008,05,18,02,29,9.10
2008,05,18,02,30,9.10
2008,05,18,02,31,9.10
2008,05,18,02,32,9.10
2008,05,18,02,33,9.10
2008,05,18,02,34,9.10
2008,05,18,02,35,9.10
2008,05,18,02,36,9.10
2008,05,18,02,37,9.10
2008,05,18,02,38,9.10
2008,05,18,02,39,9.10
2008,05,18,02,40,9.10
2008,05,18,02,41,9.10
2008,05,18,02,42,9.10
2008,05,18,02,43,9.10
2008,05,18,02,44,9.10
2008,05,18,02,45,9.10
2008,05,18,02,46,9.10
2008,05,18,02,47,9.10
2008,05,18,02,48,9.10
2008,05,18,02,49,9.10
2008,05,18,02,50,9.10
2008,05,18,02,51,9.10
2008,05,18,02,52,9.10
2008,05,18,02,53,9.10
2008,05,18,02,54,9.10
2008,05,18,02,55,9.10
2008,05,18,02,56,9.10
2008,05,18,02,57,9.10
2008,05,18,02,58,9.10
2008,05,18,02,59,9.10
2008,05,18,03,00,9.10
2008,05,18,03,01,9.10
2008,05,18,03,02,9.10
2008,05,18,03,03,9.10
2008,05,18,03,04,9.10
2008,05,18,03,05,9.10
2008,05,18,03,06,9.10
2008,05,18,03,07,9.10
2008,05,18,03,08,9.10
2008,05,18,03,09,9.10
2008,05,18,03,10,9.10
2008,05,18,03,11,9.10
2008,05,18,03,12,9.10
2008,05,18,03,13,9.10
2008,05,18,03,14,9.10
2008,05,18,03,15,9.10
2008,05,18,03,16,9.10
2008,05,18,03,17,9.10
2008,05,18,03,18,9.10
2008,05,18,03,19,9.10
2008,05,18,03,20,9.10
2008,05,18,03,21,9.10
2008,05,18,03,22,9.10
2008,05,18,03,23,9.10
2008,05,18,03,24,9.10
2008,05,18,03,25,9.10
2008,05,18,03,26,9.10
2008,05,18,03,27,9.10
2008,05,18,03,28,9.10
2008,05,18,03,29,9.10
2008,05,18,03,30,9.10
2008,05,18,03,31,9.10
2008,05,18,03,32,9.10
2008,05,18,03,53,9.30
2008,05,18,03,54,9.30
2008,05,18,03,55,9.30
2008,05,18,03,56,9.30
2008,05,18,03,57,9.30
2008,05,18,03,58,9.30
2008,05,18,03,59,9.30
2008,05,18,04,00,9.30
2008,05,18,04,01,9.30
2008,05,18,04,02,9.30
2008,05,18,04,03,9.30
2008,05,18,04,04,9.30
2008,05,18,04,05,9.30
2008,05,18,04,06,9.30
2008,05,18,04,41,9.50
2008,05,18,04,42,9.50
2008,05,18,04,43,9.50
2008,05,18,04,44,9.50
2008,05,18,04,45,9.50
2008,05,18,04,46,9.50
2008,05,18,04,47,9.50
2008,05,18,04,48,9.50
2008,05,18,04,49,9.50
2008,05,18,04,50,9.50
2008,05,18,04,51,9.40
2008,05,18,04,52,9.40
2008,05,18,04,53,9.40
2008,05,18,04,54,9.40
2008,05,18,04,55,9.40
2008,05,18,04,56,9.40
2008,05,18,04,57,9.40
2008,05,18,04,58,9.40
2008,05,18,04,59,9.40
2008,05,18,05,00,9.40
2008,05,18,05,01,9.40
2008,05,18,05,02,9.40
2008,05,18,05,03,9.40
2008,05,18,05,04,9.40
2008,05,18,05,05,9.40
2008,05,18,05,06,9.40
2008,05,18,05,07,9.40
2008,05,18,05,08,9.40
2008,05,18,05,09,9.40
2008,05,18,05,10,9.40
2008,05,18,05,11,9.40
2008,05,18,05,12,9.40
2008,05,18,05,13,9.40
2008,05,18,05,14,9.40
2008,05,18,05,15,9.30
2008,05,18,05,16,9.30
2008,05,18,05,17,9.30
2008,05,18,05,18,9.30
2008,05,18,05,19,9.30
2008,05,18,05,20,9.30
2008,05,18,05,21,9.30
2008,05,18,05,22,9.30
2008,05,18,05,23,9.30
2008,05,18,05,24,9.30
2008,05,18,05,25,9.30
2008,05,18,05,26,9.30
2008,05,18,05,27,9.30
2008,05,18,05,28,9.30
2008,05,18,05,29,9.30
2008,05,18,05,30,9.30
2008,05,18,05,32,9.30
2008,05,18,05,34,9.30
2008,05,18,05,59,9.40
2008,05,18,06,00,9.40
2008,05,18,06,01,9.40
2008,05,18,06,02,9.40
2008,05,18,06,03,9.40
2008,05,18,06,04,9.40
2008,05,18,06,05,9.40
2008,05,18,06,06,9.40
2008,05,18,06,07,9.40
2008,05,18,06,08,9.40
2008,05,18,06,09,9.50
2008,05,18,06,10,9.50
2008,05,18,06,11,9.50
2008,05,18,06,12,9.50
2008,05,18,06,13,9.50
2008,05,18,06,14,9.50
2008,05,18,06,15,9.50
2008,05,18,06,16,9.50
2008,05,18,06,17,9.50
2008,05,18,06,18,9.50
2008,05,18,06,19,9.50
2008,05,18,06,20,9.50
2008,05,18,06,21,9.50
2008,05,18,06,22,9.50
2008,05,18,06,23,9.50
2008,05,18,06,24,9.50
2008,05,18,06,25,9.50
2008,05,18,06,26,9.50
2008,05,18,06,27,9.50
2008,05,18,06,28,9.50
2008,05,18,06,29,9.50
2008,05,18,06,30,9.50
2008,05,18,06,31,9.50
2008,05,18,06,32,9.50
2008,05,18,06,33,9.50
2008,05,18,06,44,9.40
2008,05,18,06,45,9.40
2008,05,18,06,46,9.40
2008,05,18,06,47,9.40
2008,05,18,06,48,9.40
2008,05,18,06,49,9.40
2008,05,18,06,50,9.40
2008,05,18,06,51,9.40
2008,05,18,06,52,9.40
2008,05,18,07,04,9.50
2008,05,18,07,05,9.50
2008,05,18,07,06,9.50
2008,05,18,07,07,9.50
2008,05,18,07,08,9.50
2008,05,18,07,09,9.50
2008,05,18,07,10,9.50
2008,05,18,07,11,9.50
2008,05,18,07,12,9.50
2008,05,18,07,13,9.50
2008,05,18,07,24,9.50
2008,05,18,07,25,9.50
2008,05,18,07,26,9.50
2008,05,18,07,27,9.50
2008,05,18,07,28,9.50
2008,05,18,07,29,9.50
2008,05,18,07,30,9.50
2008,05,18,07,31,9.50
2008,05,18,07,32,9.50
2008,05,18,07,33,9.50
2008,05,18,07,34,9.50
2008,05,18,07,35,9.50
2008,05,18,07,36,9.50
2008,05,18,07,37,9.50
2008,05,18,07,59,9.40
2008,05,18,08,00,9.40
2008,05,18,08,01,9.40
2008,05,18,08,02,9.40
2008,05,18,08,03,9.40
2008,05,18,08,04,9.40
2008,05,18,08,05,9.40
2008,05,18,08,06,9.40
2008,05,18,08,07,9.40
2008,05,18,08,08,9.40
2008,05,18,08,42,9.70
2008,05,18,08,43,9.70
2008,05,18,08,44,9.70
2008,05,18,08,45,9.70
2008,05,18,08,46,9.70
2008,05,18,08,47,9.70
2008,05,18,08,48,9.70
2008,05,18,08,49,9.70
2008,05,18,08,50,9.70
2008,05,18,08,51,9.70
2008,05,18,08,52,9.80
2008,05,18,08,53,9.80
2008,05,18,08,54,9.80
2008,05,18,08,55,9.80
2008,05,18,08,56,9.80
2008,05,18,08,57,9.80
2008,05,18,08,58,9.80
2008,05,18,08,59,9.80
2008,05,18,09,00,9.80
2008,05,18,09,01,9.80
2008,05,18,09,02,9.70
2008,05,18,09,03,9.70
2008,05,18,09,04,9.70
2008,05,18,09,05,9.70
2008,05,18,09,06,9.70
2008,05,18,09,07,9.70
2008,05,18,09,08,9.70
2008,05,18,09,09,9.70
2008,05,18,09,10,9.70
2008,05,18,09,11,9.70
2008,05,18,09,12,9.70
2008,05,18,09,13,9.70
2008,05,18,09,14,9.70
2008,05,18,09,15,9.70
2008,05,18,09,16,9.80
2008,05,18,09,17,9.80
2008,05,18,09,18,9.80
2008,05,18,09,19,9.80
2008,05,18,09,20,9.80
2008,05,18,09,21,9.90
2008,05,18,09,22,9.90
2008,05,18,09,23,9.90
2008,05,18,09,24,9.90
2008,05,18,09,25,9.90
2008,05,18,09,26,9.90
2008,05,18,09,27,9.90
2008,05,18,09,28,9.90
2008,05,18,09,29,9.90
2008,05,18,09,30,9.90
2008,05,18,09,32,10.00
2008,05,18,09,33,10.00
2008,05,18,09,34,10.00
2008,05,18,09,35,10.00
2008,05,18,09,36,10.00
2008,05,18,09,37,10.00
2008,05,18,09,38,10.00
2008,05,18,09,39,10.00
2008,05,18,09,40,10.00
2008,05,18,09,41,10.00
2008,05,18,09,42,10.00
2008,05,18,09,43,10.00
2008,05,18,09,44,10.00
2008,05,18,09,45,10.00
2008,05,18,09,46,10.00
2008,05,18,09,47,10.00
2008,05,18,09,48,10.10
2008,05,18,09,49,10.10
2008,05,18,09,50,10.10
2008,05,18,09,51,10.10
2008,05,18,09,52,10.10
2008,05,18,09,53,10.10
2008,05,18,09,54,10.10
2008,05,18,09,55,10.10
2008,05,18,09,56,10.10
2008,05,18,09,57,10.10
2008,05,18,09,58,10.10
2008,05,18,09,59,10.10
2008,05,18,10,00,10.10
2008,05,18,10,01,10.10
2008,05,18,10,02,10.10
2008,05,18,10,03,10.10
2008,05,18,10,04,10.10
2008,05,18,10,05,10.10
2008,05,18,10,06,10.10
2008,05,18,10,07,10.10
2008,05,18,10,08,9.90
2008,05,18,10,09,9.90
2008,05,18,10,10,9.90
2008,05,18,10,11,9.90
2008,05,18,10,12,9.90
2008,05,18,10,13,9.90
2008,05,18,10,14,9.90
2008,05,18,10,15,9.90
2008,05,18,10,16,9.90
2008,05,18,10,17,9.90
2008,05,18,10,18,9.90
2008,05,18,10,19,9.90
2008,05,18,10,20,9.90
2008,05,18,10,21,9.90
2008,05,18,10,22,10.20
2008,05,18,10,23,10.20
2008,05,18,10,24,10.20
2008,05,18,10,25,10.20
2008,05,18,10,26,10.20
2008,05,18,10,27,10.20
2008,05,18,10,28,10.20
2008,05,18,10,29,10.20
2008,05,18,10,30,10.20
2008,05,18,10,31,10.20
2008,05,18,10,32,10.70
2008,05,18,10,33,10.70
2008,05,18,10,34,10.70
2008,05,18,10,35,10.70
2008,05,18,10,36,10.70
2008,05,18,10,37,10.70
2008,05,18,10,38,10.70
2008,05,18,10,39,10.70
2008,05,18,10,40,10.70
2008,05,18,10,41,10.70
2008,05,18,10,42,10.80
2008,05,18,10,43,10.80
2008,05,18,10,44,10.80
2008,05,18,10,45,10.80
2008,05,18,10,46,10.80
2008,05,18,10,47,10.80
2008,05,18,10,48,10.80
2008,05,18,10,49,10.80
2008,05,18,10,50,10.80
2008,05,18,10,51,10.80
2008,05,18,10,52,11.00
2008,05,18,10,53,11.00
2008,05,18,10,54,11.00
2008,05,18,10,55,11.00
2008,05,18,10,56,11.00
2008,05,18,10,57,11.00
2008,05,18,10,59,11.00
2008,05,18,11,00,11.00
2008,05,18,11,01,11.00
2008,05,18,11,02,11.00
2008,05,18,11,03,11.00
2008,05,18,11,04,11.00
2008,05,18,11,05,11.00
2008,05,18,11,06,11.00
2008,05,18,11,07,11.00
2008,05,18,11,08,11.00
2008,05,18,11,09,11.00
2008,05,18,11,10,11.00
2008,05,18,11,11,10.50
2008,05,18,11,12,10.50
2008,05,18,11,13,10.50
2008,05,18,11,14,10.50
2008,05,18,11,15,10.50
2008,05,18,11,16,10.50
2008,05,18,11,17,10.50
2008,05,18,11,18,10.50
2008,05,18,11,19,10.50
2008,05,18,11,20,10.50
2008,05,18,11,21,10.80
2008,05,18,11,22,10.80
2008,05,18,11,23,10.80
2008,05,18,11,24,10.80
2008,05,18,11,25,10.80
2008,05,18,11,26,10.80
2008,05,18,11,27,10.80
2008,05,18,11,28,10.80
2008,05,18,11,29,10.80
2008,05,18,11,30,10.80
2008,05,18,11,31,10.80
2008,05,18,11,32,10.80
2008,05,18,11,33,10.80
2008,05,18,11,34,10.80
2008,05,18,11,35,10.80
2008,05,18,11,36,10.80
2008,05,18,11,37,10.80
2008,05,18,11,38,11.20
2008,05,18,11,39,11.20
2008,05,18,11,40,11.20
2008,05,18,11,41,11.20
2008,05,18,11,42,11.20
2008,05,18,11,43,11.20
2008,05,18,11,44,11.20
2008,05,18,11,45,11.20
2008,05,18,11,46,11.20
2008,05,18,11,47,11.20
2008,05,18,11,48,11.20
2008,05,18,11,49,10.80
2008,05,18,11,50,10.80
2008,05,18,11,51,10.80
2008,05,18,11,52,10.80
2008,05,18,11,53,10.80
2008,05,18,11,54,10.80
2008,05,18,11,55,10.80
2008,05,18,11,56,10.80
2008,05,18,11,57,10.80
2008,05,18,11,58,10.80
2008,05,18,11,59,10.60
2008,05,18,12,00,10.60
2008,05,18,12,01,10.60
2008,05,18,12,02,10.60
2008,05,18,12,03,10.60
2008,05,18,12,04,10.60
2008,05,18,12,05,10.60
2008,05,18,12,06,10.60
2008,05,18,12,07,10.60
2008,05,18,12,08,10.60
2008,05,18,12,09,10.60
2008,05,18,12,10,10.60
2008,05,18,12,11,10.60
2008,05,18,12,12,10.60
2008,05,18,12,13,10.60
2008,05,18,12,14,10.60
2008,05,18,12,15,10.60
2008,05,18,12,16,10.60
2008,05,18,12,17,10.60
2008,05,18,12,18,10.60
2008,05,18,12,19,10.60
2008,05,18,12,20,10.60
2008,05,18,12,21,10.60
2008,05,18,12,22,10.60
2008,05,18,12,23,10.60
2008,05,18,12,25,10.30
2008,05,18,12,26,10.30
2008,05,18,12,27,10.30
2008,05,18,12,29,10.30
2008,05,18,12,30,10.30
2008,05,18,12,31,10.30
2008,05,18,12,32,10.30
2008,05,18,12,33,10.30
2008,05,18,12,34,10.30
2008,05,18,12,35,10.10
2008,05,18,12,36,10.10
2008,05,18,12,37,10.10
2008,05,18,12,38,10.10
2008,05,18,12,39,10.10
2008,05,18,12,40,10.10
2008,05,18,12,41,10.10
2008,05,18,12,42,10.10
2008,05,18,12,43,10.10
2008,05,18,12,45,10.10
2008,05,18,12,46,10.10
2008,05,18,12,47,10.40
2008,05,18,12,48,10.40
2008,05,18,12,49,10.40
2008,05,18,12,51,10.40
2008,05,18,12,52,10.40
2008,05,18,12,53,10.40
2008,05,18,12,54,10.40
2008,05,18,12,55,10.40
2008,05,18,12,56,10.40
2008,05,18,12,57,10.40
2008,05,18,12,58,10.40
2008,05,18,12,59,10.40
2008,05,18,13,00,10.40
2008,05,18,13,01,10.40
2008,05,18,13,02,10.60
2008,05,18,13,03,10.60
2008,05,18,13,04,10.60
2008,05,18,13,05,10.60
2008,05,18,13,06,10.60
2008,05,18,13,07,10.60
2008,05,18,13,08,10.60
2008,05,18,13,09,10.60
2008,05,18,13,10,10.60
2008,05,18,13,11,10.60
2008,05,18,13,12,10.80
2008,05,18,13,13,10.80
2008,05,18,13,14,10.80
2008,05,18,13,15,10.80
2008,05,18,13,16,10.80
2008,05,18,13,17,10.80
2008,05,18,13,18,10.80
2008,05,18,13,19,10.80
2008,05,18,13,20,10.80
2008,05,18,13,21,10.80
2008,05,18,13,22,10.90
2008,05,18,13,23,10.90
2008,05,18,13,24,10.90
2008,05,18,13,25,10.90
2008,05,18,13,26,10.90
2008,05,18,13,27,10.90
2008,05,18,13,28,10.90
2008,05,18,13,29,10.90
2008,05,18,13,30,10.90
2008,05,18,13,31,10.90
2008,05,18,13,32,10.90
2008,05,18,13,33,10.90
2008,05,18,13,34,10.90
2008,05,18,13,35,10.90
2008,05,18,13,36,11.40
2008,05,18,13,37,11.40
2008,05,18,13,39,11.40
2008,05,18,13,40,11.40
2008,05,18,13,41,11.40
2008,05,18,13,42,11.40
2008,05,18,13,43,11.40
2008,05,18,13,44,11.40
2008,05,18,13,45,11.40
2008,05,18,13,46,11.00
2008,05,18,13,47,11.00
2008,05,18,13,48,11.00
2008,05,18,13,49,11.00
2008,05,18,13,50,11.00
2008,05,18,13,51,11.00
2008,05,18,13,52,11.00
2008,05,18,13,53,11.00
2008,05,18,13,54,11.00
2008,05,18,13,55,11.00
2008,05,18,13,56,11.60
2008,05,18,13,57,11.60
2008,05,18,13,58,11.60
2008,05,18,13,59,11.60
2008,05,18,14,00,11.60
2008,05,18,14,01,11.60
2008,05,18,14,02,11.60
2008,05,18,14,03,11.60
2008,05,18,14,05,11.60
2008,05,18,14,06,11.60
2008,05,18,14,07,11.60
2008,05,18,14,08,11.60
2008,05,18,14,09,11.60
2008,05,18,14,10,13.70
2008,05,18,14,11,13.70
2008,05,18,14,12,13.70
2008,05,18,14,13,13.70
2008,05,18,14,14,13.70
2008,05,18,14,15,13.70
2008,05,18,14,16,13.70
2008,05,18,14,17,13.70
2008,05,18,14,18,13.70
2008,05,18,14,20,13.70
2008,05,18,14,21,13.70
2008,05,18,14,22,13.70
2008,05,18,14,23,13.70
2008,05,18,14,24,13.70
2008,05,18,14,25,13.70
2008,05,18,14,26,13.70
2008,05,18,14,27,13.70
2008,05,18,14,28,13.70
2008,05,18,14,29,13.70
2008,05,18,14,30,13.20
2008,05,18,14,31,13.20
2008,05,18,14,32,13.20
2008,05,18,14,33,13.20
2008,05,18,14,34,13.20
2008,05,18,14,35,13.20
2008,05,18,14,36,13.20
2008,05,18,14,37,13.20
2008,05,18,14,38,13.20
2008,05,18,14,39,13.20
2008,05,18,14,40,13.20
2008,05,18,14,41,13.20
2008,05,18,14,42,13.20
2008,05,18,14,43,13.20
2008,05,18,14,44,14.50
2008,05,18,14,45,14.50
2008,05,18,14,46,14.50
2008,05,18,14,47,14.50
2008,05,18,14,49,14.50
2008,05,18,14,50,14.50
2008,05,18,14,51,14.50
2008,05,18,14,52,14.50
2008,05,18,14,53,14.50
2008,05,18,14,54,13.90
2008,05,18,14,55,13.90
2008,05,18,14,56,13.90
2008,05,18,14,57,13.90
2008,05,18,14,58,13.90
2008,05,18,14,59,13.90
2008,05,18,15,00,13.90
2008,05,18,15,01,13.90
2008,05,18,15,02,13.90
2008,05,18,15,03,13.90
2008,05,18,15,04,13.90
2008,05,18,15,05,13.90
2008,05,18,15,06,13.90
2008,05,18,15,07,13.90
2008,05,18,15,08,13.90
2008,05,18,15,09,13.90
2008,05,18,15,10,13.90
2008,05,18,15,11,13.90
2008,05,18,15,12,13.90
2008,05,18,15,13,13.90
2008,05,18,15,15,13.90
2008,05,18,15,16,13.90
2008,05,18,15,17,13.90
2008,05,18,15,18,13.20
2008,05,18,15,19,13.20
2008,05,18,15,20,13.20
2008,05,18,15,21,13.20
2008,05,18,15,22,13.20
2008,05,18,15,23,13.20
2008,05,18,15,24,13.20
2008,05,18,15,25,13.20
2008,05,18,15,26,13.20
2008,05,18,15,27,13.20
2008,05,18,15,28,12.70
2008,05,18,15,29,12.70
2008,05,18,15,30,12.70
2008,05,18,15,31,12.70
2008,05,18,15,32,12.70
2008,05,18,15,33,12.70
2008,05,18,15,34,12.70
2008,05,18,15,35,12.70
2008,05,18,15,36,12.70
2008,05,18,15,37,12.70
2008,05,18,15,38,11.90
2008,05,18,15,39,11.90
2008,05,18,15,40,11.90
2008,05,18,15,41,11.90
2008,05,18,15,42,11.90
2008,05,18,15,43,11.90
2008,05,18,15,44,11.90
2008,05,18,15,45,11.90
2008,05,18,15,46,11.90
2008,05,18,15,47,11.90
2008,05,18,15,48,11.90
2008,05,18,15,49,11.90
2008,05,18,15,50,11.90
2008,05,18,15,51,11.90
2008,05,18,15,52,13.40
2008,05,18,15,53,13.40
2008,05,18,15,54,13.40
2008,05,18,15,55,13.40
2008,05,18,15,56,13.40
2008,05,18,15,57,13.40
2008,05,18,15,58,13.40
2008,05,18,15,59,13.40
2008,05,18,16,00,13.40
2008,05,18,16,01,13.40
2008,05,18,16,02,13.40
2008,05,18,16,03,13.40
2008,05,18,16,04,13.40
2008,05,18,16,05,13.40
2008,05,18,16,06,13.40
2008,05,18,16,07,13.40
2008,05,18,16,08,13.70
2008,05,18,16,09,13.70
2008,05,18,16,10,13.70
2008,05,18,16,11,13.70
2008,05,18,16,12,13.70
2008,05,18,16,13,13.70
2008,05,18,16,14,13.70
2008,05,18,16,15,13.70
2008,05,18,16,16,13.70
2008,05,18,16,17,13.70
2008,05,18,16,18,13.90
2008,05,18,16,19,13.90
2008,05,18,16,20,13.90
2008,05,18,16,21,13.90
2008,05,18,16,22,13.90
2008,05,18,16,23,13.90
2008,05,18,16,24,13.90
2008,05,18,16,25,13.90
2008,05,18,16,26,13.90
2008,05,18,16,27,13.90
2008,05,18,16,28,13.80
2008,05,18,16,29,13.80
2008,05,18,16,30,13.80
2008,05,18,16,31,13.80
2008,05,18,16,32,13.80
2008,05,18,16,33,13.80
2008,05,18,16,34,13.80
2008,05,18,16,35,13.80
2008,05,18,16,36,13.80
2008,05,18,16,37,13.80
2008,05,18,16,38,13.40
2008,05,18,16,39,13.40
2008,05,18,16,40,13.40
2008,05,18,16,41,13.40
2008,05,18,16,43,13.40
2008,05,18,16,44,13.40
2008,05,18,16,45,13.40
2008,05,18,16,46,13.40
2008,05,18,16,47,13.40
2008,05,18,16,48,13.20
2008,05,18,16,49,13.20
2008,05,18,16,50,13.20
2008,05,18,16,51,13.20
2008,05,18,16,52,13.20
2008,05,18,16,53,13.20
2008,05,18,16,54,13.20
2008,05,18,16,55,13.20
2008,05,18,16,56,13.20
2008,05,18,16,57,13.20
2008,05,18,16,58,13.20
2008,05,18,16,59,13.20
2008,05,18,17,01,13.20
2008,05,18,17,02,13.20
2008,05,18,17,03,13.20
2008,05,18,17,04,13.20
2008,05,18,17,05,13.20
2008,05,18,17,06,13.20
2008,05,18,17,07,13.20
2008,05,18,17,08,13.20
2008,05,18,17,09,13.20
2008,05,18,17,10,13.20
2008,05,18,17,11,13.20
2008,05,18,17,12,13.20
2008,05,18,17,13,13.20
2008,05,18,17,14,13.20
2008,05,18,17,15,14.40
2008,05,18,17,16,14.40
2008,05,18,17,17,14.40
2008,05,18,17,18,14.40
2008,05,18,17,19,14.40
2008,05,18,17,20,14.40
2008,05,18,17,21,14.40
2008,05,18,17,22,14.40
2008,05,18,17,23,14.40
2008,05,18,17,24,14.40
2008,05,18,17,25,13.60
2008,05,18,17,26,13.60
2008,05,18,17,27,13.60
2008,05,18,17,28,13.60
2008,05,18,17,29,13.60
2008,05,18,17,30,13.60
2008,05,18,17,31,13.60
2008,05,18,17,32,13.60
2008,05,18,17,33,13.60
2008,05,18,17,34,13.60
2008,05,18,17,35,13.30
2008,05,18,17,36,13.30
2008,05,18,17,37,13.30
2008,05,18,17,38,13.30
2008,05,18,17,39,13.30
2008,05,18,17,40,13.30
2008,05,18,17,41,13.30
2008,05,18,17,42,13.30
2008,05,18,17,43,13.30
2008,05,18,17,44,13.30
2008,05,18,17,45,13.10
2008,05,18,17,46,13.10
2008,05,18,17,47,13.10
2008,05,18,17,48,13.10
2008,05,18,17,49,13.10
2008,05,18,17,50,13.10
2008,05,18,17,51,13.10
2008,05,18,17,52,13.10
2008,05,18,17,53,13.10
2008,05,18,17,54,13.10
2008,05,18,17,55,13.10
2008,05,18,17,56,13.10
2008,05,18,17,57,13.10
2008,05,18,17,58,13.10
2008,05,18,17,59,13.10
2008,05,18,18,00,13.10
2008,05,18,18,01,13.10
2008,05,18,18,02,13.10
2008,05,18,18,03,13.10
2008,05,18,18,04,13.10
2008,05,18,18,05,13.10
2008,05,18,18,06,13.10
2008,05,18,18,07,13.10
2008,05,18,18,08,12.80
2008,05,18,18,09,12.80
2008,05,18,18,10,12.80
2008,05,18,18,11,12.80
2008,05,18,18,12,12.80
2008,05,18,18,13,12.80
2008,05,18,18,14,12.80
2008,05,18,18,15,12.80
2008,05,18,18,16,12.80
2008,05,18,18,17,12.80
2008,05,18,18,18,12.80
2008,05,18,18,19,12.80
2008,05,18,18,20,12.80
2008,05,18,18,21,12.80
2008,05,18,18,22,12.80
2008,05,18,18,23,12.80
2008,05,18,18,24,12.80
2008,05,18,18,25,12.80
2008,05,18,18,26,12.80
2008,05,18,18,27,12.80
2008,05,18,18,28,12.80
2008,05,18,18,29,12.80
2008,05,18,18,30,12.80
2008,05,18,18,31,12.80
2008,05,18,18,33,13.10
2008,05,18,18,34,13.10
2008,05,18,18,35,13.10
2008,05,18,18,36,13.10
2008,05,18,18,37,13.10
2008,05,18,18,38,13.10
2008,05,18,18,39,13.10
2008,05,18,18,40,13.10
2008,05,18,18,41,13.10
2008,05,18,18,42,11.90
2008,05,18,18,43,11.90
2008,05,18,18,44,11.90
2008,05,18,18,45,11.90
2008,05,18,18,46,11.90
2008,05,18,18,47,11.90
2008,05,18,18,48,11.90
2008,05,18,18,49,11.90
2008,05,18,18,50,11.90
2008,05,18,18,51,11.90
2008,05,18,18,52,10.70
2008,05,18,18,53,10.70
2008,05,18,18,54,10.70
2008,05,18,18,55,10.70
2008,05,18,18,56,10.70
2008,05,18,18,58,10.70
2008,05,18,18,59,10.70
2008,05,18,19,00,10.70
2008,05,18,19,01,10.70
2008,05,18,19,02,10.40
2008,05,18,19,03,10.40
2008,05,18,19,04,10.40
2008,05,18,19,05,10.40
2008,05,18,19,06,10.40
2008,05,18,19,07,10.40
2008,05,18,19,08,10.40
2008,05,18,19,09,10.40
2008,05,18,19,10,10.40
2008,05,18,19,11,10.40
2008,05,18,19,12,10.40
2008,05,18,19,13,10.40
2008,05,18,19,14,10.40
2008,05,18,19,15,10.40
2008,05,18,19,16,10.30
2008,05,18,19,17,10.30
2008,05,18,19,18,10.30
2008,05,18,19,19,10.30
2008,05,18,19,20,10.30
2008,05,18,19,21,10.30
2008,05,18,19,22,10.30
2008,05,18,19,23,10.30
2008,05,18,19,24,10.30
2008,05,18,19,25,10.30
2008,05,18,19,26,10.30
2008,05,18,19,27,10.30
2008,05,18,19,28,10.30
2008,05,18,19,30,11.10
2008,05,18,19,31,11.10
2008,05,18,19,32,11.10
2008,05,18,19,33,11.10
2008,05,18,19,34,11.10
2008,05,18,19,35,11.10
2008,05,18,19,36,11.10
2008,05,18,19,37,11.10
2008,05,18,19,39,10.80
2008,05,18,19,40,10.80
2008,05,18,19,41,10.80
2008,05,18,19,42,10.80
2008,05,18,19,43,10.80
2008,05,18,19,44,10.80
2008,05,18,19,45,10.80
2008,05,18,19,46,10.80
2008,05,18,19,47,10.80
2008,05,18,19,48,10.80
2008,05,18,19,49,10.80
2008,05,18,19,50,12.00
2008,05,18,19,51,12.00
2008,05,18,19,52,12.00
2008,05,18,19,53,12.00
2008,05,18,19,54,12.00
2008,05,18,19,55,12.00
2008,05,18,19,56,12.00
2008,05,18,19,57,12.00
2008,05,18,19,58,12.00
2008,05,18,19,59,12.00
2008,05,18,20,00,12.70
2008,05,18,20,01,12.70
2008,05,18,20,02,12.70
2008,05,18,20,03,12.70
2008,05,18,20,04,12.70
2008,05,18,20,05,12.70
2008,05,18,20,06,12.70
2008,05,18,20,07,12.70
2008,05,18,20,08,12.70
2008,05,18,20,09,12.70
2008,05,18,20,10,13.10
2008,05,18,20,11,13.10
2008,05,18,20,12,13.10
2008,05,18,20,13,13.10
2008,05,18,20,14,13.10
2008,05,18,20,15,13.10
2008,05,18,20,16,13.10
2008,05,18,20,17,13.10
2008,05,18,20,18,13.10
2008,05,18,20,19,13.10
2008,05,18,20,20,13.10
2008,05,18,20,21,13.10
2008,05,18,20,22,13.10
2008,05,18,20,23,13.10
2008,05,18,20,24,12.30
2008,05,18,20,25,12.30
2008,05,18,20,26,12.30
2008,05,18,20,27,12.30
2008,05,18,20,28,12.30
2008,05,18,20,29,12.30
2008,05,18,20,30,12.30
2008,05,18,20,31,12.30
2008,05,18,20,32,12.30
2008,05,18,20,33,12.30
2008,05,18,20,34,12.30
2008,05,18,20,35,12.30
2008,05,18,20,36,12.50
2008,05,18,20,37,12.50
2008,05,18,20,38,12.50
2008,05,18,20,39,12.50
2008,05,18,20,40,12.50
2008,05,18,20,41,12.50
2008,05,18,20,42,12.50
2008,05,18,20,43,12.50
2008,05,18,20,44,12.50
2008,05,18,20,45,12.50